30.06.2024;15:00;4
30.06.2024;14:00;4
30.06.2024;13:00;5
30.06.2024;12:00;5
30.06.2024;11:00;5
30.06.2024;10:00;5
30.06.2024;09:00;6
30.06.2024;08:00;7
30.06.2024;07:00;9
30.06.2024;06:00;9
30.06.2024;05:00;12
30.06.2024;04:00;15
30.06.2024;03:00;23
30.06.2024;02:00;25
30.06.2024;01:00;29
30.06.2024;00:00;32
29.06.2024;23:00;32
29.06.2024;22:00;28
29.06.2024;21:00;23
29.06.2024;20:00;19
29.06.2024;19:00;15
29.06.2024;18:00;15
29.06.2024;17:00;16
29.06.2024;16:00;16
29.06.2024;15:00;15
29.06.2024;14:00;15
29.06.2024;13:00;13
29.06.2024;12:00;11
29.06.2024;11:00;10
29.06.2024;10:00;8
29.06.2024;09:00;9
29.06.2024;08:00;10
29.06.2024;07:00;11
29.06.2024;06:00;13
29.06.2024;05:00;14
29.06.2024;04:00;12
29.06.2024;03:00;12
29.06.2024;02:00;14
29.06.2024;01:00;14
29.06.2024;00:00;12
28.06.2024;23:00;14
28.06.2024;22:00;13
28.06.2024;21:00;12
28.06.2024;20:00;13
28.06.2024;19:00;13
28.06.2024;18:00;12
28.06.2024;17:00;13
28.06.2024;16:00;12
